Weather History for KSPF - October, 2012

Change the Weather History Date:

Wednesday, October 31, 2012

  Actual Average (KEFC) Record (KEFC)
Temperature  
Mean Temperature 52 °F -  
Max Temperature 66 °F 56 °F 77 °F (1990)
Min Temperature 39 °F 28 °F -10 °F (1991)
Degree Days  
Heating Degree Days 12    
Growing Degree Days 2 (Base 50)    
Moisture  
Dew Point 33 °F    
Average Humidity 49    
Maximum Humidity 81    
Minimum Humidity 28    
Precipitation  
Precipitation 0.00 in - - ()
Sea Level Pressure  
Sea Level Pressure 30.05 in    
Wind  
Wind Speed 4 mph (NW)    
Max Wind Speed 16 mph    
Max Gust Speed 24 mph    
Visibility 10 miles    
Events      
Averages and records for this station are not official NWS values.
T = Trace of Precipitation, MM = Missing Value Source: NWS Daily Summary

Daily Weather History Graph

Daily Weather History Graph

Search for Another Location

Airport or City:

Trip Planner

Search our weather history database for the weather conditions in past years. The results will help you decide how hot, cold, wet, or windy it might be!

Date:

Astronomy

Oct. 31, 2012 Rise Set
Actual Time 8:31 AM CDT 6:44 PM CDT
Civil Twilight 8:01 AM CDT 7:15 PM CDT
Nautical Twilight 7:27 AM CDT 7:49 PM CDT
Astronomical Twilight 6:53 AM CDT 8:23 PM CDT
Moon 7:53 PM CDT (10/31) 10:19 AM CDT (10/31)
Length of Visible Light 11h 13m
Length of Day
10h 12m
Full, 97% of the Moon is Illuminated
Oct 31
Full
Nov 6
Last Quarter
Nov 13
New
Nov 20
First Quarter
Nov 28
Full

Hourly Weather History & Observations

Time (CDT) Temp. Windchill Dew Point Humidity Pressure Visibility Wind Dir Wind Speed Gust Speed Precip Events Conditions
12:15 AM 48.2 °F - 32.0 °F 54% 30.04 in 10.0 mi Calm Calm - N/A   Clear
12:35 AM 48.2 °F - 32.0 °F 54% 30.04 in 10.0 mi Calm Calm - N/A   Clear
12:55 AM 48.2 °F - 32.0 °F 54% 30.04 in 10.0 mi Calm Calm - N/A   Clear
1:15 AM 48.2 °F - 32.0 °F 54% 30.04 in 10.0 mi Calm Calm - N/A   Clear
1:55 AM 46.4 °F - 32.0 °F 57% 30.04 in 10.0 mi Calm Calm - N/A   Clear
2:15 AM 48.2 °F - 32.0 °F 54% 30.03 in 10.0 mi Calm Calm - N/A   Clear
2:55 AM 46.4 °F - 32.0 °F 57% 30.03 in 10.0 mi Calm Calm - N/A   Clear
3:15 AM 46.4 °F - 30.2 °F 53% 30.02 in 10.0 mi Calm Calm - N/A   Clear
3:35 AM 46.4 °F - 30.2 °F 53% 30.03 in 10.0 mi Calm Calm - N/A   Clear
3:55 AM 46.4 °F - 30.2 °F 53% 30.02 in 10.0 mi Calm Calm - N/A   Clear
4:15 AM 44.6 °F - 30.2 °F 57% 30.02 in 10.0 mi Calm Calm - N/A   Clear
4:35 AM 46.4 °F - 30.2 °F 53% 30.02 in 10.0 mi Calm Calm - N/A   Clear
4:55 AM 44.6 °F 42.2 °F 28.4 °F 53% 30.01 in 10.0 mi SSW 4.6 mph - N/A   Clear
5:15 AM 42.8 °F - 28.4 °F 57% 30.01 in 10.0 mi Calm Calm - N/A   Clear
5:35 AM 42.8 °F - 28.4 °F 57% 30.01 in 10.0 mi Calm Calm - N/A   Clear
5:55 AM 46.4 °F 45.2 °F 28.4 °F 50% 30.01 in 10.0 mi NNW 3.5 mph - N/A   Clear
6:15 AM 44.6 °F 43.1 °F 30.2 °F 57% 30.01 in 10.0 mi NW 3.5 mph - N/A   Clear
6:35 AM 42.8 °F 41.1 °F 30.2 °F 61% 30.01 in 10.0 mi WNW 3.5 mph - N/A   Clear
6:55 AM 46.4 °F - 30.2 °F 53% 30.01 in 10.0 mi Calm Calm - N/A   Clear
7:15 AM 48.2 °F - 30.2 °F 50% 30.02 in 10.0 mi Calm Calm - N/A   Clear
7:35 AM 46.4 °F - 30.2 °F 53% 30.02 in 10.0 mi Calm Calm - N/A   Scattered Clouds
7:55 AM 48.2 °F - 30.2 °F 50% 30.02 in 10.0 mi Calm Calm - N/A   Overcast
8:15 AM 46.4 °F - 32.0 °F 57% 30.02 in 10.0 mi Calm Calm - N/A   Overcast
8:35 AM 46.4 °F - 32.0 °F 57% 30.02 in 10.0 mi Calm Calm - N/A   Overcast
8:55 AM 50.0 °F - 32.0 °F 50% 30.03 in 10.0 mi West 8.1 mph - N/A   Overcast
9:15 AM 53.6 °F - 32.0 °F 44% 30.03 in 8.0 mi West 9.2 mph - N/A   Overcast
9:35 AM 51.8 °F - 32.0 °F 47% 30.04 in 10.0 mi West 6.9 mph - N/A   Scattered Clouds
9:55 AM 57.2 °F - 32.0 °F 38% 30.04 in 10.0 mi WSW 8.1 mph - N/A   Clear
10:15 AM 59.0 °F - 32.0 °F 36% 30.05 in 10.0 mi WNW 8.1 mph - N/A   Clear
10:35 AM 59.0 °F - 32.0 °F 36% 30.05 in 10.0 mi West 4.6 mph - N/A   Clear
10:55 AM 62.6 °F - 32.0 °F 32% 30.06 in 10.0 mi West 8.1 mph - N/A   Clear
11:15 AM 62.6 °F - 32.0 °F 32% 30.06 in 10.0 mi WNW 15.0 mph 24.2 mph N/A   Clear
11:35 AM 62.6 °F - 32.0 °F 32% 30.06 in 10.0 mi WNW 15.0 mph 20.7 mph N/A   Clear
11:55 AM 64.4 °F - 32.0 °F 30% 30.06 in 10.0 mi WNW 13.8 mph 19.6 mph N/A   Clear
12:15 PM 62.6 °F - 32.0 °F 32% 30.07 in 10.0 mi NW 13.8 mph 19.6 mph N/A   Clear
12:35 PM 64.4 °F - 32.0 °F 30% 30.06 in 10.0 mi NW 12.7 mph - N/A   Clear
12:55 PM 64.4 °F - 32.0 °F 30% 30.06 in 10.0 mi NW 11.5 mph 16.1 mph N/A   Clear
1:15 PM 66.2 °F - 32.0 °F 28% 30.05 in 6.0 mi NW 12.7 mph 20.7 mph N/A   Haze
1:35 PM 66.2 °F - 32.0 °F 28% 30.06 in 10.0 mi NW 16.1 mph 20.7 mph N/A   Clear
1:55 PM 66.2 °F - 32.0 °F 28% 30.05 in 10.0 mi NW 15.0 mph 20.7 mph N/A   Clear
2:15 PM 66.2 °F - 32.0 °F 28% 30.05 in 10.0 mi NNW 12.7 mph 17.3 mph N/A   Clear
2:35 PM 66.2 °F - 33.8 °F 30% 30.05 in 10.0 mi NW 10.4 mph 18.4 mph N/A   Clear
2:55 PM 66.2 °F - 33.8 °F 30% 30.05 in 10.0 mi NNW 10.4 mph 19.6 mph N/A   Clear
3:15 PM 66.2 °F - 35.6 °F 32% 30.05 in 10.0 mi NW 11.5 mph - N/A   Clear
3:35 PM 66.2 °F - 33.8 °F 30% 30.05 in 10.0 mi NNW 10.4 mph 17.3 mph N/A   Clear
3:55 PM 66.2 °F - 33.8 °F 30% 30.05 in 10.0 mi NW 11.5 mph - N/A   Clear
4:15 PM 66.2 °F - 33.8 °F 30% 30.05 in 10.0 mi NW 9.2 mph 17.3 mph N/A   Clear
4:35 PM 66.2 °F - 33.8 °F 30% 30.05 in 10.0 mi NNW 12.7 mph - N/A   Clear
4:55 PM 64.4 °F - 35.6 °F 34% 30.06 in 10.0 mi NNW 12.7 mph 17.3 mph N/A   Clear
5:15 PM 64.4 °F - 33.8 °F 32% 30.06 in 10.0 mi NNW 11.5 mph - N/A   Clear
5:35 PM 62.6 °F - 35.6 °F 37% 30.06 in 10.0 mi North 8.1 mph - N/A   Clear
5:55 PM 62.6 °F - 35.6 °F 37% 30.06 in 10.0 mi North 3.5 mph - N/A   Clear
6:15 PM 59.0 °F - 35.6 °F 42% 30.07 in 10.0 mi North 6.9 mph - N/A   Clear
6:35 PM 57.2 °F - 35.6 °F 44% 30.07 in 10.0 mi ENE 4.6 mph - N/A   Clear
6:55 PM 51.8 °F - 35.6 °F 54% 30.07 in 10.0 mi South 3.5 mph - N/A   Clear
7:15 PM 50.0 °F - 35.6 °F 58% 30.09 in 10.0 mi SE 3.5 mph - N/A   Clear
7:35 PM 50.0 °F - 35.6 °F 58% 30.09 in 10.0 mi East 5.8 mph - N/A   Clear
7:55 PM 50.0 °F - 35.6 °F 58% 30.10 in 10.0 mi ESE 3.5 mph - N/A   Clear
8:15 PM 44.6 °F 41.4 °F 35.6 °F 71% 30.10 in 10.0 mi SSE 5.8 mph - N/A   Clear
8:35 PM 44.6 °F 43.1 °F 35.6 °F 71% 30.11 in 10.0 mi ESE 3.5 mph - N/A   Clear
8:55 PM 44.6 °F 40.7 °F 35.6 °F 71% 30.10 in 10.0 mi SSE 6.9 mph - N/A   Clear
9:15 PM 41.0 °F - 35.6 °F 81% 30.10 in 10.0 mi Calm Calm - N/A   Clear
9:35 PM 41.0 °F 37.1 °F 33.8 °F 76% 30.09 in 10.0 mi SE 5.8 mph - N/A   Clear
9:55 PM 41.0 °F 36.4 °F 33.8 °F 76% 30.09 in 10.0 mi ESE 6.9 mph - N/A   Clear
10:15 PM 41.0 °F 37.1 °F 33.8 °F 76% 30.08 in 10.0 mi SE 5.8 mph - N/A   Clear
10:35 PM 41.0 °F 38.0 °F 33.8 °F 76% 30.08 in 10.0 mi SE 4.6 mph - N/A   Clear
10:55 PM 41.0 °F 37.1 °F 32.0 °F 70% 30.07 in 10.0 mi SE 5.8 mph - N/A   Clear
11:15 PM 41.0 °F 38.0 °F 33.8 °F 76% 30.07 in 10.0 mi SE 4.6 mph - N/A   Clear
11:35 PM 39.2 °F 35.9 °F 33.8 °F 81% 30.07 in 10.0 mi SE 4.6 mph - N/A   Clear
11:55 PM 41.0 °F - 33.8 °F 76% 30.07 in 10.0 mi Calm Calm - N/A   Clear